Temp
46 42 40 49 46 46 39 38 37 44 52 42 47 49 53 56 56 57 58 58 58 61 67 66 59 54 52 51 52 52 50 51 49 47 45 44 45 44 43 44 44 43 42 41
40 37 47 46 45 44 42 40 41 47 51 42 44 46 52 55 56 59 60 62 62 61 61 63 57 51 50 53 51 51 51 51 50 51 50 50 50 46 46 44 42 43 41 41
44 46 48 47 43 43 39 37 43 41 43 42 39 39 42 48 52 57 59 61 61 60 62 64 58 53 48 47 48 51 52 51 51 52 50 39 38 36 37 37 39 41 41 40
41 46 46 40 42 44 41 46 45 42 36 32 40 33 40 53 54 49 54 55 54 54 57 57 56 53 47 49 49 51 51 51 51 51 48 48 49 46 45 46 44 41 40 39
43 41 40 40 44 45 42 44 41 36 33 31 31 29 37 43 43 49 52 53 54 56 53 54 54 54 53 49 48 50 50 50 50 50 49 47 49 50 44 46 42 39 39 39
42 43 45 45 44 45 44 39 36 31 32 27 37 35 38 40 46 46 50 55 55 54 54 53 52 51 50 47 45 44 45 47 48 48 49 47 49 46 40 39 39 38 38 38
37 40 42 46 39 39 40 36 28 25 22 31 34 32 45 46 51 51 56 57 52 51 51 51 51 53 49 47 45 42 42 44 45 46 47 47 48 45 43 41 41 38 37 37
35 37 41 43 45 42 36 38 27 19 22 35 32 34 44 49 52 52 49 48 51 51 49 49 49 48 48 46 42 40 40 42 42 43 44 44 46 45 44 41 42 40 40 40
33 34 40 42 41 45 35 34 39 31 19 20 37 43 52 50 48 46 48 47 50 49 49 50 49 47 47 45 42 40 40 40 41 41 43 43 44 43 43 40 39 40 40 40
42 34 41 38 39 38 40 40 31 27 23 18 32 32 40 47 48 49 47 47 48 49 53 62 53 51 46 45 41 40 40 40 39 39 41 43 43 44 42 39 38 38 38 38
44 39 37 37 35 38 34 35 34 36 33 29 26 33 51 47 45 44 49 52 49 50 52 52 47 48 47 43 41 39 38 38 38 39 40 40 41 42 38 37 38 39 38 37
44 36 30 35 44 42 43 43 43 34 28 32 34 33 54 53 51 49 51 54 53 46 42 42 43 44 45 46 46 41 39 38 39 39 38 39 40 37 37 40 39 38 37 37
40 34 29 33 33 34 32 37 39 38 38 32 28 33 48 50 50 52 44 34 39 39 40 40 41 41 41 42 42 43 43 41 38 37 36 36 36 34 39 39 39 37 37 36
41 34 31 27 31 33 30 32 34 32 25 27 28 32 37 40 36 31 34 35 35 35 37 38 38 38 39 40 40 40 40 41 40 35 35 35 36 38 39 40 38 37 37 36
35 26 30 30 32 32 30 28 30 29 32 27 32 34 34 28 29 32 33 33 33 33 34 36 36 37 38 37 38 38 39 38 37 36 36 36 37 36 36 37 36 35 35 36
33 22 26 22 29 29 26 29 31 32 33 33 33 32 28 31 32 31 31 31 32 34 35 37 37 36 36 35 35 35 36 35 35 34 34 37 37 33 34 35 34 33 34 34
25 20 11 17 27 23 16 24 29 29 28 24 22 23 26 26 29 30 31 31 31 31 33 34 35 36 36 36 35 33 34 34 34 34 34 34 34 34 34 34 32 33 32 33
24 17 11 9 7 -0 24 29 27 24 23 23 23 25 24 26 30 31 34 28 28 30 31 34 34 34 35 36 36 35 34 32 32 32 33 33 32 33 31 30 31 32 32 31
28 24 5 5 3 18 26 22 20 17 16 20 21 27 28 30 27 28 35 34 31 30 32 33 32 33 34 33 33 32 32 33 32 30 29 29 29 29 28 28 29 30 30 29
26 26 18 -1 3 -1 16 21 27 24 9 20 19 21 22 25 15 23 32 33 32 32 30 30 30 30 30 29 30 28 29 30 31 31 29 27 25 24 26 27 27 28 29 29
0 -3 1 -5 -6 6 18 24 27 7 14 19 20 24 25 21 22 28 31 28 29 30 30 32 31 29 29 29 28 27 27 28 29 29 29 29 27 23 24 25 26 27 27 26
11 0 -3 -8 -11 -2 21 24 14 22 24 22 26 27 24 26 27 28 27 27 27 26 26 28 26 26 27 28 26 24 25 27 24 24 27 28 28 25 24 24 24 23 23 23
11 15 6 10 10 24 22 26 32 31 25 28 27 29 26 26 25 26 25 25 25 25 25 24 22 23 25 25 24 21 22 22 22 22 22 23 27 26 24 23 22 22 22 22
19 25 17 19 25 26 30 33 32 31 31 32 29 25 24 22 23 23 23 23 23 23 22 22 20 19 18 20 20 19 19 20 18 16 17 19 21 25 24 23 23 22 21 21
23 21 17 19 26 28 30 31 32 32 30 25 24 23 23 21 20 21 20 19 20 21 20 20 18 17 16 17 16 14 15 14 12 13 14 15 18 22 24 22 23 22 24 23
26 24 20 18 29 27 29 33 29 26 24 22 20 19 21 21 19 19 17 18 17 17 17 16 15 14 13 12 11 11 10 9 8 8 10 12 15 18 22 22 22 28 28 28
MSLP
1015.73 1016.42 1016.24 1015.43 1015.82 1015.77 1016.29 1016.16 1015.72 1014.51 1013.60 1013.66 1012.82 1011.93 1010.79 1010.14 1009.32 1008.41 1007.54 1007.14 1006.44 1005.60 1004.53 1005.18 1005.48 1005.97 1006.58 1007.13 1007.60 1007.91 1008.72 1009.50 1010.83 1011.97 1012.99 1013.93 1013.74 1014.67 1015.10 1015.13 1015.45 1016.37 1017.15 1017.99
1016.57 1015.88 1015.45 1015.57 1015.81 1016.35 1016.33 1016.10 1015.50 1014.19 1013.31 1013.51 1012.33 1010.62 1009.92 1009.06 1007.77 1006.72 1006.27 1005.38 1005.34 1005.36 1005.14 1004.81 1004.89 1005.43 1005.87 1005.93 1006.54 1007.33 1007.49 1008.01 1008.59 1009.46 1010.41 1011.45 1012.16 1013.18 1014.22 1015.02 1015.36 1015.53 1016.06 1016.90
1015.54 1015.00 1014.74 1015.18 1015.61 1015.99 1015.51 1015.86 1014.84 1014.61 1014.08 1013.49 1012.37 1009.34 1008.29 1007.03 1006.57 1006.12 1005.00 1004.63 1004.98 1005.14 1004.69 1004.21 1004.68 1004.99 1005.82 1006.39 1006.44 1006.35 1006.50 1007.31 1007.99 1008.12 1008.95 1010.07 1011.37 1012.86 1013.44 1013.88 1014.96 1015.52 1015.83 1016.18
1015.49 1014.62 1014.81 1015.09 1015.15 1014.98 1014.98 1013.94 1014.19 1014.59 1015.21 1014.70 1013.13 1009.55 1008.41 1006.53 1005.93 1005.44 1004.70 1004.54 1004.80 1004.70 1004.61 1004.50 1004.79 1004.94 1005.25 1005.21 1005.10 1005.61 1005.75 1006.32 1006.41 1007.80 1008.88 1008.89 1008.62 1009.35 1009.21 1010.42 1011.83 1013.36 1014.52 1015.30
1014.63 1014.51 1014.53 1014.63 1013.64 1014.30 1014.05 1013.63 1014.13 1014.65 1015.30 1014.86 1013.42 1012.70 1007.19 1005.78 1005.26 1004.62 1004.54 1004.60 1004.62 1004.57 1005.10 1004.84 1004.62 1004.51 1004.35 1004.42 1004.52 1004.47 1004.79 1005.60 1005.80 1006.27 1006.48 1007.97 1008.22 1008.11 1008.91 1009.73 1010.86 1012.16 1013.17 1014.33
1014.54 1014.10 1013.92 1013.48 1013.45 1013.32 1014.06 1014.36 1014.75 1015.16 1015.25 1014.02 1012.39 1011.63 1006.82 1005.61 1004.59 1004.27 1003.87 1003.70 1003.95 1004.90 1004.78 1004.62 1004.47 1004.35 1004.22 1004.00 1004.21 1004.60 1004.71 1004.27 1005.18 1005.67 1006.24 1006.02 1006.60 1007.63 1008.47 1009.05 1010.43 1011.16 1012.22 1013.43
1014.12 1013.71 1013.08 1012.76 1013.55 1013.87 1014.10 1015.09 1015.89 1015.72 1015.35 1012.47 1010.59 1009.83 1005.68 1004.96 1004.05 1003.97 1003.98 1003.77 1004.04 1004.61 1005.04 1005.19 1005.06 1004.72 1003.75 1004.23 1004.33 1004.29 1004.37 1004.60 1004.77 1005.11 1005.70 1006.09 1006.37 1007.17 1008.04 1008.74 1009.15 1010.48 1011.23 1012.03
1014.09 1012.60 1012.53 1012.36 1012.60 1012.78 1014.03 1014.70 1016.12 1015.49 1014.17 1011.92 1010.83 1006.75 1004.01 1003.67 1003.53 1003.64 1003.77 1004.35 1004.49 1004.96 1005.21 1005.12 1005.04 1005.08 1004.60 1004.01 1004.03 1004.49 1004.37 1004.05 1004.38 1004.97 1005.21 1005.86 1006.58 1006.35 1006.83 1007.75 1008.64 1009.09 1009.75 1010.59
1013.54 1012.11 1011.64 1011.69 1011.86 1012.28 1013.61 1014.15 1013.73 1014.26 1013.74 1013.13 1009.28 1005.30 1003.18 1003.01 1003.22 1004.08 1004.31 1004.57 1004.96 1005.41 1005.62 1005.11 1004.76 1004.52 1004.33 1004.14 1003.47 1004.33 1004.68 1004.63 1004.41 1004.81 1005.21 1005.27 1005.65 1006.34 1006.16 1006.49 1007.28 1008.16 1008.84 1009.26
1013.24 1012.13 1011.47 1011.82 1012.08 1012.59 1012.79 1012.88 1013.64 1014.44 1014.13 1012.22 1008.83 1007.18 1002.64 1003.08 1003.99 1004.56 1004.89 1005.44 1005.59 1005.44 1005.25 1004.81 1004.67 1004.25 1004.36 1004.40 1003.69 1003.85 1004.21 1004.59 1004.42 1004.34 1004.61 1005.02 1004.87 1005.08 1006.05 1006.44 1006.47 1007.23 1007.74 1008.56
1013.71 1013.28 1011.73 1012.13 1012.53 1012.29 1013.39 1013.18 1013.36 1013.39 1012.84 1011.52 1009.50 1006.15 1003.41 1003.81 1004.17 1004.53 1005.53 1006.00 1006.43 1005.85 1005.37 1005.49 1005.89 1005.52 1005.63 1005.47 1004.99 1004.65 1004.79 1004.40 1004.44 1004.27 1004.18 1004.36 1004.55 1004.69 1005.11 1006.09 1006.64 1006.70 1007.28 1007.69
1014.03 1014.21 1013.62 1012.16 1011.81 1011.70 1011.77 1012.67 1012.62 1012.32 1011.66 1010.21 1008.32 1006.18 1004.79 1004.67 1005.13 1005.43 1005.80 1006.69 1007.32 1008.56 1008.35 1008.02 1008.02 1007.71 1007.40 1006.84 1006.39 1005.58 1005.36 1005.27 1004.90 1004.71 1005.05 1005.05 1004.59 1004.64 1004.91 1005.14 1005.29 1006.00 1006.27 1007.29
1014.84 1014.53 1014.11 1012.69 1012.08 1012.98 1012.93 1013.41 1013.24 1012.57 1011.31 1009.98 1008.52 1006.31 1006.63 1006.35 1006.57 1007.25 1008.61 1009.40 1009.84 1010.16 1009.86 1009.41 1008.70 1008.46 1008.53 1007.86 1007.61 1006.91 1006.17 1005.68 1004.81 1004.44 1004.23 1004.31 1004.50 1004.77 1004.45 1004.62 1004.64 1004.73 1005.41 1006.08
1015.84 1015.48 1015.11 1014.52 1014.06 1014.05 1014.17 1014.39 1014.23 1014.62 1013.00 1011.33 1010.55 1009.45 1009.51 1010.41 1010.98 1010.33 1011.39 1011.46 1011.99 1011.68 1011.37 1010.81 1010.27 1009.93 1009.29 1008.91 1008.79 1008.20 1007.38 1006.47 1005.76 1004.82 1004.23 1003.97 1003.69 1003.54 1003.31 1003.73 1004.10 1004.15 1004.69 1005.05
1016.91 1016.52 1016.33 1015.83 1015.84 1015.05 1015.31 1015.43 1014.62 1013.92 1012.97 1012.20 1010.80 1010.99 1011.80 1013.48 1013.59 1013.35 1013.20 1012.81 1012.89 1012.24 1011.54 1011.45 1010.89 1010.48 1010.22 1009.27 1008.80 1008.54 1007.88 1007.18 1006.31 1005.22 1004.23 1003.66 1003.19 1002.87 1002.83 1002.97 1002.92 1003.26 1003.70 1004.54
1018.29 1018.01 1017.96 1017.41 1015.97 1016.47 1016.07 1014.89 1014.20 1013.64 1012.57 1011.78 1012.30 1012.75 1014.57 1015.04 1014.46 1014.31 1014.57 1014.18 1013.16 1012.18 1011.18 1010.87 1010.68 1010.76 1010.91 1010.25 1009.60 1009.26 1008.56 1007.55 1006.73 1006.03 1004.84 1003.95 1002.92 1002.45 1002.27 1002.33 1002.28 1002.46 1003.16 1003.68
1019.85 1019.76 1019.92 1018.38 1017.54 1017.68 1016.39 1014.12 1013.72 1013.62 1013.62 1014.33 1014.40 1014.84 1015.21 1015.28 1014.82 1015.17 1014.95 1014.86 1014.16 1013.55 1012.69 1012.33 1011.72 1011.50 1011.19 1010.48 1010.16 1009.66 1008.73 1007.70 1006.97 1006.25 1005.85 1004.76 1003.63 1002.62 1001.90 1001.94 1001.84 1001.85 1001.92 1002.92
1019.92 1020.63 1021.20 1020.33 1019.88 1018.54 1014.99 1014.45 1014.74 1015.20 1015.81 1016.14 1016.10 1016.07 1016.09 1015.97 1015.69 1015.41 1014.73 1014.64 1014.09 1013.83 1013.26 1012.35 1011.79 1011.33 1010.95 1010.74 1010.40 1009.77 1008.89 1007.79 1007.05 1006.45 1005.61 1004.69 1003.79 1002.90 1002.35 1001.69 1001.81 1001.69 1001.31 1001.81
1019.85 1021.07 1021.96 1022.29 1021.15 1017.73 1016.16 1015.88 1016.12 1016.25 1016.48 1016.69 1016.65 1016.36 1016.02 1015.69 1015.25 1014.73 1014.42 1014.31 1014.02 1013.76 1013.22 1012.83 1012.43 1011.87 1011.09 1010.54 1010.26 1009.77 1008.57 1007.46 1007.23 1006.63 1005.85 1005.13 1004.36 1003.56 1002.97 1002.24 1001.99 1001.85 1001.49 1001.18
1020.16 1020.97 1022.35 1023.13 1022.07 1019.87 1017.42 1016.62 1016.27 1016.55 1016.57 1016.51 1016.39 1016.29 1016.02 1015.73 1015.44 1014.15 1014.02 1014.05 1013.78 1013.42 1013.34 1012.91 1012.61 1012.29 1011.66 1011.05 1010.39 1009.71 1008.82 1007.85 1007.19 1006.62 1005.86 1005.07 1004.36 1003.62 1002.91 1002.63 1002.30 1001.85 1001.77 1001.90
1021.97 1022.66 1023.46 1023.17 1022.45 1019.89 1017.44 1016.61 1016.07 1016.59 1016.28 1015.66 1015.81 1015.62 1015.57 1015.45 1015.06 1014.15 1013.45 1013.68 1013.67 1013.34 1013.06 1012.82 1012.45 1012.11 1011.50 1011.14 1010.54 1009.74 1008.86 1008.43 1007.21 1007.15 1005.80 1004.66 1003.71 1003.50 1002.90 1002.40 1002.37 1001.93 1001.97 1002.18
1021.56 1022.57 1023.50 1023.01 1021.97 1019.68 1016.91 1016.29 1016.28 1015.56 1015.28 1015.34 1015.09 1014.90 1014.78 1014.43 1014.18 1014.01 1013.72 1013.27 1013.30 1013.08 1012.71 1012.46 1012.15 1011.65 1011.16 1010.93 1010.53 1009.89 1009.24 1008.60 1007.92 1007.25 1005.88 1004.55 1003.68 1002.92 1002.71 1002.40 1002.02 1002.32 1002.14 1001.85
1020.51 1020.07 1020.62 1020.54 1018.13 1016.71 1016.00 1015.32 1014.38 1014.55 1014.58 1014.19 1014.37 1014.09 1014.26 1014.31 1014.01 1013.67 1013.48 1013.07 1012.75 1012.84 1012.49 1012.18 1011.87 1011.02 1010.45 1010.42 1010.23 1009.40 1008.78 1008.38 1007.27 1006.65 1006.13 1004.71 1003.31 1002.58 1002.25 1002.60 1001.70 1001.45 1002.42 1001.97
1018.14 1017.98 1018.24 1017.90 1015.90 1015.67 1014.72 1013.94 1013.95 1013.76 1013.57 1013.33 1013.50 1013.81 1014.17 1014.24 1013.88 1013.71 1013.57 1013.16 1012.72 1012.38 1012.08 1011.84 1011.44 1010.81 1010.09 1009.99 1009.69 1009.25 1008.56 1008.21 1007.55 1006.73 1005.71 1004.40 1003.17 1002.30 1001.99 1001.80 1001.23 1001.14 1000.97 1001.07
1016.41 1016.67 1016.46 1015.48 1014.62 1014.15 1013.68 1013.21 1013.07 1013.03 1013.12 1013.54 1013.80 1014.10 1014.39 1014.52 1013.98 1014.14 1013.61 1013.07 1012.60 1012.05 1011.59 1011.60 1011.17 1010.58 1009.72 1009.55 1009.25 1009.04 1008.67 1008.43 1007.59 1006.59 1005.31 1004.30 1003.55 1002.31 1001.20 1000.86 1000.05 999.84 999.91 999.49
1015.10 1014.80 1015.14 1013.95 1013.31 1013.33 1012.74 1012.57 1013.09 1013.60 1014.08 1014.44 1014.77 1014.58 1014.64 1014.83 1014.48 1014.35 1013.67 1013.12 1012.79 1012.05 1011.47 1011.25 1010.90 1010.47 1009.53 1009.20 1008.65 1008.52 1008.51 1008.30 1007.62 1006.32 1005.23 1004.40 1003.38 1002.31 1000.88 999.80 998.77 998.73 998.60 998.75
Wind_Speed
1 4 9 21 12 2 1 5 7 10 12 4 16 18 20 18 21 22 22 20 22 23 22 14 9 9 10 10 14 17 17 17 14 11 12 9 13 10 9 10 14 13 11 11
2 8 13 3 4 7 9 11 16 13 19 5 14 19 19 21 22 26 26 25 21 15 13 16 10 8 11 13 15 14 17 18 18 15 13 8 11 9 9 7 9 12 13 13
12 6 8 7 5 9 7 7 17 14 8 6 9 13 10 10 11 20 25 22 17 15 18 18 10 9 6 9 12 16 18 17 16 17 12 5 6 4 4 7 7 10 13 13
8 6 7 4 7 11 16 13 13 11 4 5 5 14 3 14 15 10 15 14 12 11 11 12 9 9 8 12 10 13 14 17 17 18 14 20 16 13 13 13 12 13 16 15
9 5 4 5 12 8 11 5 5 2 4 5 3 5 3 4 6 10 9 9 10 12 8 10 10 8 8 8 10 12 13 14 16 18 19 15 15 12 5 8 14 13 13 14
8 3 6 8 5 9 2 1 3 4 3 8 13 10 4 5 7 4 3 7 8 8 10 7 7 7 8 6 7 7 9 13 15 17 19 21 22 12 9 12 12 11 10 10
2 6 4 5 3 0 3 4 5 5 1 11 2 6 11 6 9 6 11 11 6 6 7 10 12 13 10 9 9 6 8 11 12 15 17 17 17 12 13 12 12 14 11 10
4 13 9 5 9 9 8 10 7 8 6 13 3 17 11 8 6 8 5 4 6 9 7 7 7 8 10 11 6 7 8 8 10 11 13 10 13 10 11 11 9 11 12 13
5 9 2 6 3 7 5 6 3 3 2 1 11 21 19 12 7 3 5 4 8 8 9 10 9 8 9 9 6 7 7 7 7 8 10 12 12 12 13 12 11 11 10 10
4 13 6 1 3 1 5 3 1 2 3 11 13 7 23 15 10 8 9 10 10 8 12 19 11 10 5 10 6 5 6 7 8 9 10 11 12 13 11 10 15 15 13 14
4 2 9 1 6 9 2 3 3 2 6 13 13 14 15 10 7 9 12 12 9 11 12 11 9 10 11 9 9 8 6 6 7 8 9 10 11 12 9 10 10 12 11 15
6 3 7 14 12 7 8 20 23 14 10 10 18 18 24 20 14 9 16 17 18 18 18 17 17 17 17 19 17 9 8 7 6 6 6 9 8 8 10 13 14 12 13 12
3 3 8 17 3 5 0 4 8 14 17 25 23 16 4 15 22 19 19 12 14 16 19 18 19 19 18 18 18 18 16 13 8 7 7 8 8 8 14 13 12 13 14 14
4 6 10 11 15 8 8 11 19 16 10 14 18 19 12 17 19 25 19 18 15 16 17 17 17 17 17 17 17 18 17 17 17 9 8 10 10 14 14 13 12 13 14 14
1 6 2 13 15 18 16 19 23 23 24 23 27 28 10 12 13 12 17 18 17 16 16 17 18 17 18 18 17 17 15 16 17 18 14 12 11 10 9 10 10 10 13 13
2 6 6 14 23 8 18 22 22 26 28 26 21 17 5 6 12 14 16 18 21 22 20 19 18 16 17 18 18 17 17 16 15 15 16 18 14 7 10 10 10 11 13 14
3 3 2 16 20 11 11 16 16 10 8 5 6 4 6 8 13 11 13 12 14 17 17 16 18 16 16 16 16 16 17 15 15 14 13 14 14 13 11 10 10 13 14 12
9 3 3 8 6 4 7 6 7 7 5 6 6 5 4 8 9 12 7 5 12 14 15 15 14 16 16 17 16 15 16 14 14 13 15 15 16 15 9 7 10 10 10 13
15 8 3 4 7 10 14 5 3 5 5 5 4 7 8 7 8 5 7 7 12 13 14 13 13 16 17 17 16 17 18 15 14 12 14 14 13 14 10 7 7 8 8 10
5 9 5 2 3 6 5 3 5 2 6 6 6 6 5 4 5 11 10 10 12 10 11 13 13 13 14 15 14 16 17 16 16 15 16 12 10 9 10 8 6 4 5 8
3 4 5 3 4 9 5 6 3 4 8 4 4 7 7 6 6 11 17 9 8 10 11 13 13 13 14 13 13 15 16 15 14 19 18 15 10 8 7 5 3 4 6 4
5 4 4 3 3 10 6 4 5 9 6 6 7 11 9 9 11 12 13 14 12 13 14 14 13 14 13 12 12 15 16 15 15 17 18 15 13 7 5 6 3 3 5 7
5 8 6 11 10 5 5 12 17 11 9 14 10 13 7 11 13 13 13 15 14 14 13 11 11 15 15 13 12 15 16 16 16 17 18 18 16 10 6 7 5 4 5 6
6 7 8 12 15 18 19 19 10 11 17 17 10 6 6 12 13 13 13 15 16 16 15 13 13 14 17 13 14 14 15 14 16 18 18 16 16 14 9 7 6 6 7 7
7 5 6 13 17 17 18 16 17 17 11 4 3 4 8 8 15 12 14 17 16 17 17 14 14 16 20 17 16 12 13 13 17 18 17 16 14 15 11 10 8 9 10 11
8 16 11 16 20 16 19 17 3 3 4 4 5 10 9 9 14 15 17 16 16 18 18 17 19 19 21 19 19 16 12 12 16 18 14 12 12 12 12 9 8 20 21 20
Wind_Direction
190 144 192 226 207 284 165 252 248 266 276 298 265 268 275 274 285 271 263 259 262 259 265 272 252 209 205 204 199 194 188 191 175 182 180 191 204 198 198 195 186 182 180 177
69 226 224 85 163 226 250 269 268 272 264 203 269 271 267 263 255 261 270 273 266 274 269 269 260 215 202 209 204 201 203 188 187 188 194 198 189 200 205 202 194 186 176 175
210 211 203 192 171 238 217 217 259 260 321 250 298 271 231 261 252 262 265 264 276 269 280 279 278 236 216 222 205 207 202 198 200 193 177 129 103 80 148 172 184 196 186 181
241 258 195 149 214 211 267 224 249 266 3 248 18 296 307 258 269 244 265 273 266 258 264 279 302 296 223 229 215 219 204 203 193 185 190 192 198 189 198 193 188 185 186 186
246 188 171 185 218 144 241 198 225 187 205 337 230 272 237 151 260 270 278 276 273 271 289 283 282 280 270 239 222 213 200 203 192 194 190 197 212 212 181 180 177 181 182 189
244 306 178 221 234 181 48 42 51 67 101 268 200 197 94 166 195 240 227 274 267 325 328 304 298 299 292 272 251 231 210 197 193 194 201 198 205 194 168 165 178 181 178 180
250 227 242 167 221 48 144 74 309 322 32 253 171 230 248 237 222 211 281 269 311 331 342 345 345 337 348 309 280 228 203 213 194 197 204 208 206 194 195 186 180 175 179 186
234 282 187 174 198 189 180 167 166 235 258 281 90 260 269 212 246 239 322 308 318 324 337 328 327 318 309 307 294 243 217 209 188 196 199 197 214 200 198 183 186 187 189 194
218 257 201 204 151 148 172 181 197 295 13 321 264 277 280 215 286 282 289 8 317 321 306 288 288 277 298 300 287 239 229 221 192 195 198 205 203 206 198 179 176 180 182 176
299 299 211 288 92 46 171 189 53 355 252 258 269 272 261 303 308 319 324 341 337 311 309 310 305 318 329 292 302 258 231 225 206 191 202 213 207 206 203 183 182 183 178 172
16 135 252 21 194 193 87 251 244 228 200 248 261 256 274 291 305 329 315 310 299 289 290 312 325 324 327 332 328 324 293 234 232 224 208 210 212 208 185 194 201 192 185 183
205 212 252 252 241 202 208 252 240 242 245 230 254 258 285 295 310 314 313 317 353 19 15 16 14 14 6 4 358 341 316 289 264 240 247 246 225 200 202 207 198 190 188 188
83 227 293 291 65 19 120 337 296 307 270 259 268 266 286 320 324 325 12 48 18 14 9 3 4 5 0 360 355 355 351 333 286 257 231 222 224 216 221 218 207 188 186 185
140 221 230 263 281 337 284 327 305 281 278 302 295 309 322 321 344 342 10 28 22 15 6 359 360 355 353 351 350 348 343 345 337 300 259 245 220 220 218 215 205 195 195 186
113 257 331 304 291 303 306 282 274 271 271 263 281 281 328 16 356 351 351 2 5 8 8 356 349 345 341 343 343 342 337 339 333 329 319 273 251 236 223 217 208 191 192 197
352 285 350 288 288 293 288 286 270 266 269 268 267 275 34 16 8 5 350 350 347 345 347 347 346 342 338 336 334 331 330 333 333 326 322 312 293 249 229 222 205 191 198 198
221 211 96 270 286 326 287 249 261 279 352 329 287 44 8 349 345 327 309 326 343 337 333 331 336 330 327 327 328 324 324 327 330 332 327 325 307 282 252 231 204 204 196 192
240 206 156 262 50 238 247 86 100 119 120 85 38 349 300 291 307 290 270 323 332 325 322 325 322 318 319 318 320 320 321 326 327 323 336 339 331 311 277 230 224 217 192 195
217 217 247 217 204 282 306 20 40 95 257 207 229 262 252 286 288 277 349 317 317 314 314 315 317 317 319 318 319 322 320 325 323 323 329 334 331 319 296 264 246 235 211 195
66 215 197 23 212 233 243 232 244 172 258 218 204 251 235 249 303 299 325 320 308 295 288 299 305 306 308 311 320 317 317 319 317 323 325 319 318 313 297 282 266 251 238 232
15 9 177 247 249 285 246 241 273 98 275 255 190 245 235 236 225 281 302 297 288 288 293 295 298 294 295 299 310 309 312 305 327 320 312 312 312 299 286 280 274 234 213 217
157 155 225 68 41 286 199 331 135 262 279 255 264 264 241 256 273 280 286 294 296 295 297 298 296 294 292 296 302 299 295 308 311 305 306 307 301 294 283 259 231 255 217 181
269 193 198 184 221 242 236 273 283 286 258 282 273 275 236 266 269 283 286 289 293 291 291 294 286 291 295 297 293 291 299 307 309 309 307 307 305 291 262 247 222 191 223 207
241 210 236 264 260 256 267 275 271 271 276 280 266 249 238 259 276 286 289 288 293 292 289 293 288 284 289 294 297 292 300 308 305 302 301 306 306 296 263 236 219 219 203 207
235 158 216 253 271 275 267 261 262 268 273 280 283 247 264 279 283 287 286 286 288 289 292 292 287 289 289 296 293 291 299 306 300 298 297 297 293 288 271 241 230 220 226 203
216 246 239 255 268 265 273 279 353 297 313 346 325 308 298 291 292 296 286 288 291 291 294 294 291 289 291 296 294 295 298 297 292 291 290 285 288 284 283 260 249 242 236 228